Weather History for PHNL - May, 2013

Change the Weather History Date:

Thursday, May 9, 2013

  Actual Average Record
Temperature  
Mean Temperature 76 °F 77 °F  
Max Temperature 82 °F 84 °F 89 °F (1979)
Min Temperature 70 °F 70 °F 62 °F (1992)
Degree Days  
Heating Degree Days 0 0  
Month to date heating degree days 0 0  
Since 1 July heating degree days 0 0  
Cooling Degree Days 11 12  
Month to date cooling degree days 95 108  
Year to date cooling degree days 1183 1215  
Growing Degree Days 26 (Base 50)    
Moisture  
Dew Point 65 °F    
Average Humidity 71    
Maximum Humidity 84    
Minimum Humidity 58    
Precipitation  
Precipitation 0.00 in 0.02 in 0.57 in (1969)
Month to date precipitation 0.23 0.21  
Year to date precipitation 8.00 7.16  
Snow  
Snow 0.00 in - - ()
Month to date snowfall 0.0  
Since 1 July snowfall 0.0  
Snow Depth 0.00 in    
Sea Level Pressure  
Sea Level Pressure 30.02 in    
Wind  
Wind Speed 5 mph (SSW)    
Max Wind Speed 13 mph    
Max Gust Speed 17 mph    
Visibility 10 miles    
Events      
T = Trace of Precipitation, MM = Missing Value Source: NWS Daily Summary

Daily Weather History Graph

Daily Weather History Graph

Search for Another Location

Airport or City:

Trip Planner

Search our weather history database for the weather conditions in past years. The results will help you decide how hot, cold, wet, or windy it might be!

Date:

Astronomy

May. 09, 2013 Rise Set
Actual Time 5:56 AM HST 7:00 PM HST
Civil Twilight 5:32 AM HST 7:24 PM HST
Nautical Twilight 5:04 AM HST 7:52 PM HST
Astronomical Twilight 4:35 AM HST 8:20 PM HST
Moon 5:45 AM HST (5/9) 7:05 PM HST (5/9)
Length of Visible Light 13h 51m
Length of Day
13h 04m
Waning Crescent, 0% of the Moon is Illuminated
May 9
Waning Crescent
May 9
New
May 17
First Quarter
May 24
Full
May 31
Last Quarter

Hourly Weather History & Observations

Time (HST) Temp. Heat Index Dew Point Humidity Pressure Visibility Wind Dir Wind Speed Gust Speed Precip Events Conditions
12:53 AM 71.1 °F - 64.0 °F 78% 30.01 in 10.0 mi North 3.5 mph - N/A   Partly Cloudy
1:53 AM 70.0 °F - 64.0 °F 81% 30.00 in 10.0 mi Calm Calm - N/A   Partly Cloudy
2:53 AM 70.0 °F - 64.0 °F 81% 29.99 in 10.0 mi North 3.5 mph - N/A   Scattered Clouds
3:53 AM 70.0 °F - 64.0 °F 81% 29.99 in 10.0 mi Calm Calm - N/A   Mostly Cloudy
4:53 AM 71.1 °F - 64.9 °F 81% 30.00 in 10.0 mi Calm Calm - N/A   Overcast
5:53 AM 71.1 °F - 64.9 °F 81% 30.01 in 10.0 mi Calm Calm - N/A   Overcast
6:53 AM 72.0 °F - 66.0 °F 81% 30.03 in 10.0 mi NNW 3.5 mph - N/A   Mostly Cloudy
7:53 AM 75.9 °F - 62.1 °F 62% 30.04 in 10.0 mi Calm Calm - N/A   Mostly Cloudy
8:53 AM 78.1 °F - 62.1 °F 58% 30.04 in 10.0 mi WNW 3.5 mph - N/A   Mostly Cloudy
9:53 AM 79.0 °F - 64.0 °F 60% 30.04 in 10.0 mi South 6.9 mph - N/A   Scattered Clouds
10:53 AM 79.0 °F - 64.0 °F 60% 30.04 in 10.0 mi SSW 8.1 mph - N/A   Scattered Clouds
11:53 AM 80.1 °F 81.9 °F 64.9 °F 60% 30.04 in 10.0 mi South 10.4 mph - N/A   Scattered Clouds
12:53 PM 81.0 °F 82.7 °F 64.9 °F 58% 30.03 in 10.0 mi SSW 10.4 mph - N/A   Mostly Cloudy
1:53 PM 80.1 °F 81.9 °F 64.9 °F 60% 30.01 in 10.0 mi SW 9.2 mph - N/A   Mostly Cloudy
2:53 PM 80.1 °F 81.7 °F 64.0 °F 58% 29.99 in 10.0 mi SW 9.2 mph - N/A   Mostly Cloudy
3:53 PM 79.0 °F - 64.0 °F 60% 29.97 in 10.0 mi South 8.1 mph - N/A   Mostly Cloudy
4:53 PM 78.1 °F - 66.9 °F 68% 29.97 in 10.0 mi South 8.1 mph - N/A   Mostly Cloudy
5:53 PM 77.0 °F - 66.9 °F 71% 29.99 in 10.0 mi South 6.9 mph - N/A   Mostly Cloudy
6:53 PM 75.9 °F - 66.9 °F 74% 30.01 in 10.0 mi South 4.6 mph - N/A   Mostly Cloudy
7:53 PM 75.9 °F - 68.0 °F 76% 30.04 in 10.0 mi Calm Calm - N/A   Mostly Cloudy
8:31 PM 75.2 °F - 66.2 °F 73% 30.06 in 10.0 mi NE 6.9 mph - N/A   Mostly Cloudy
8:53 PM 75.0 °F - 66.0 °F 73% 30.07 in 10.0 mi NE 6.9 mph - N/A   Mostly Cloudy
9:53 PM 73.9 °F - 66.0 °F 76% 30.09 in 10.0 mi NE 6.9 mph - N/A   Mostly Cloudy
10:53 PM 73.9 °F - 66.0 °F 76% 30.09 in 10.0 mi NE 4.6 mph - N/A   Mostly Cloudy
11:53 PM 73.0 °F - 64.9 °F 76% 30.08 in 10.0 mi NE 3.5 mph - N/A   Scattered Clouds